Location: ?????????
(41.2393°N, 22.9479°E)
Time: 05:49:14
(UTC+00:00)

SL-16 R/B - Pass Details

Date: 17 November 2025
Orbit: 985 x 1006 km, 99.8° (Epoch: 09 December)

Event Time Altitude Azimuth Distance (km) Brightness Sun altitude
Rises 16:14:54 0° 5° (N) 3,744 5.4 -12.8°
Reaches altitude 10° 16:17:41 10° 355° (N) 2,789 4.8 -13.3°
Maximum altitude 16:22:59 30° 297° (WNW) 1,715 4.3 -14.3°
Drops below altitude 10° 16:28:15 10° 239° (WSW) 2,767 6.1 -15.2°
Sets 16:31:01 0° 229° (SW) 3,710 6.6 -15.7°
